OK1TOM-6 Weather Reports


time (UTC)temp
C
wind
direction
speed
KPH
gust
KPH
rain 1hr
cm
rain 24hr
cm
rain mn
cm
humidity
%
barometer
mb
20260507101535 11 150 1.6 3.2 0.00 0.69 0.13 85 1013.9
20260507100532 11 175 3.2 6.4 0.00 0.69 0.13 87 1013.9
20260507095528 10 169 3.2 6.4 0.00 0.69 0.13 88 1013.8
20260507094525 11 147 1.6 6.4 0.00 0.69 0.13 88 1013.7
20260507093522 11 135 1.6 6.4 0.00 0.69 0.13 87 1013.7
20260507092518 10 162 1.6 6.4 0.00 0.69 0.13 91 1013.6
20260507091615 10 156 1.6 6.4 0.00 0.69 0.13 90 1013.5
20260507090611 11 145 3.2 12.9 0.00 0.69 0.13 89 1013.4
20260507085608 10 152 3.2 6.4 0.00 0.69 0.13 90 1013.3
20260507084605 10 153 1.6 6.4 0.00 0.69 0.13 92 1013.2
20260507083601 10 158 1.6 9.7 0.00 0.69 0.13 93 1013.1
20260507082558 9 154 3.2 9.7 0.00 0.69 0.13 91 1013.0
20260507081554 10 144 1.6 6.4 0.00 0.69 0.13 90 1012.9
20260507080551 10 147 3.2 12.9 0.00 0.69 0.13 88 1012.9
20260507075547 10 123 0.0 6.4 0.00 0.69 0.13 89 1012.6
20260507074544 10 143 1.6 6.4 0.00 0.69 0.13 90 1012.5
20260507073541 10 148 3.2 9.7 0.00 0.69 0.13 90 1012.5
20260507072537 10 192 3.2 6.4 0.00 0.69 0.13 90 1012.2
20260507071534 9 171 1.6 6.4 0.00 0.69 0.13 93 1012.3
20260507070530 9 144 3.2 6.4 0.00 0.69 0.13 92 1012.3
20260507065527 9 144 3.2 9.7 0.00 0.69 0.13 91 1012.2
20260507064523 9 154 1.6 9.7 0.00 0.69 0.13 92 1012.2
20260507063520 8 158 1.6 6.4 0.03 0.69 0.13 94 1012.1
20260507062516 8 158 3.2 11.3 0.03 0.69 0.13 94 1012.1
20260507061613 8 158 1.6 6.4 0.05 0.69 0.13 94 1012.0
20260507060610 9 158 1.6 6.4 0.05 0.69 0.13 94 1011.8
20260507055607 8 158 0.0 0.0 0.05 0.69 0.13 96 1011.6
20260507054603 8 158 0.0 3.2 0.05 0.69 0.13 95 1011.5
20260507053600 8 158 1.6 6.4 0.03 0.66 0.10 95 1011.4
20260507052556 8 158 1.6 6.4 0.03 0.66 0.10 95 1011.3
20260507051553 9 154 1.6 6.4 0.00 0.64 0.05 95 1011.3
20260507050550 9 135 0.0 0.0 0.00 0.64 0.05 95 1011.2
20260507045546 9 135 0.0 0.0 0.00 0.64 0.05 95 1011.2
20260507044543 9 135 0.0 3.2 0.03 0.64 0.05 95 1011.1
20260507043539 9 135 0.0 3.2 0.03 0.64 0.05 95 1010.9
20260507042536 9 113 0.0 3.2 0.03 0.64 0.05 95 1010.9
20260507041532 9 158 0.0 0.0 0.03 0.64 0.05 96 1010.8
20260507040529 9 158 0.0 3.2 0.03 0.64 0.05 96 1010.8
20260507035526 9 146 0.0 6.4 0.03 0.64 0.05 95 1010.7
20260507034522 9 180 0.0 3.2 0.00 0.61 0.03 96 1010.6
20260507033519 9 158 0.0 3.2 0.00 0.61 0.03 95 1010.7
20260507032515 9 158 1.6 3.2 0.00 0.61 0.03 95 1010.6
20260507031612 9 158 0.0 3.2 0.00 0.61 0.03 95 1010.7
20260507030609 9 103 1.6 3.2 0.00 0.61 0.03 95 1010.6
20260507025605 9 158 1.6 6.4 0.00 0.61 0.03 96 1010.7
20260507024602 9 113 0.0 3.2 0.00 0.61 0.03 96 1010.5
20260507023559 9 150 1.6 6.4 0.00 0.61 0.03 96 1010.4
20260507022555 9 135 0.0 6.4 0.00 0.61 0.03 96 1010.4
20260507021552 9 148 1.6 6.4 0.00 0.61 0.03 96 1010.3
20260507020549 9 135 0.0 3.2 0.00 0.61 0.03 95 1010.3
20260507015545 9 148 1.6 6.4 0.00 0.61 0.03 95 1010.2
20260507014541 9 143 1.6 6.4 0.00 0.61 0.03 94 1010.1
20260507013538 9 158 1.6 9.7 0.03 0.61 0.03 95 1010.1
20260507012535 10 135 0.0 3.2 0.03 0.61 0.03 95 1010.0
20260507011531 10 139 1.6 6.4 0.03 0.61 0.03 94 1009.8
20260507010528 10 180 0.0 3.2 0.03 0.61 0.03 95 1009.9
20260507005524 10 169 0.0 3.2 0.03 0.61 0.03 95 1010.1
20260507004521 10 135 0.0 3.2 0.03 0.61 0.03 95 1010.1
20260507003518 10 135 0.0 3.2 0.00 0.56 0.00 95 1010.1
20260507002614 10 147 0.0 6.4 0.00 0.56 0.00 95 1010.1
20260507001611 10 124 0.0 3.2 0.00 0.56 0.00 95 1010.2
20260507000608 10 158 0.0 0.0 0.00 0.56 0.00 95 1010.2
20260506235604 10 158 0.0 3.2 0.00 0.56 0.00 94 1010.1
20260506234601 10 154 1.6 6.4 0.00 0.56 0.00 94 1009.9
20260506233557 10 158 0.0 3.2 0.00 0.56 0.00 93 1009.9
20260506232554 10 158 1.6 6.4 0.00 0.56 0.00 94 1009.9
20260506231550 9 158 0.0 6.4 0.00 0.56 0.00 94 1009.9
20260506230547 9 158 0.0 0.0 0.00 0.56 0.00 96 1009.9
20260506225543 9 158 0.0 0.0 0.00 0.56 0.00 97 1009.7
20260506224540 9 158 0.0 0.0 0.03 0.56 0.00 97 1009.6
20260506223536 9 158 0.0 0.0 0.10 0.56 0.00 96 1009.8
20260506222533 9 158 0.0 0.0 0.13 0.56 0.00 96 1009.7
20260506221530 10 158 0.0 0.0 0.18 0.56 0.00 96 1009.7
20260506220526 10 158 0.0 0.0 0.28 0.56 0.00 96 1009.8
20260506215523 10 158 0.0 3.2 0.33 0.56 0.56 95 1009.7
20260506214519 10 158 0.0 3.2 0.33 0.53 0.53 95 1009.8
20260506213516 10 158 0.0 3.2 0.28 0.48 0.48 95 1009.8
20260506212613 10 158 0.0 3.2 0.23 0.46 0.46 95 1009.9
20260506211609 10 158 0.0 3.2 0.18 0.38 0.38 94 1010.0
20260506210606 10 135 1.6 6.4 0.10 0.33 0.30 93 1010.1
20260506205602 11 147 3.2 6.4 0.03 0.28 0.23 93 1009.9
20260506204559 11 125 1.6 6.4 0.03 0.23 0.20 93 1009.4
20260506203556 11 338 0.0 0.0 0.05 0.23 0.20 96 1009.0
20260506202552 10 338 0.0 0.0 0.10 0.23 0.20 96 1008.9
20260506201549 11 338 0.0 0.0 0.10 0.23 0.20 96 1008.8
20260506200545 11 338 0.0 0.0 0.15 0.23 0.20 96 1008.8
20260506195542 11 338 0.0 0.0 0.15 0.23 0.20 95 1008.8
20260506194538 11 338 0.0 0.0 0.15 0.28 0.18 94 1008.9
20260506193535 11 338 0.0 0.0 0.15 0.30 0.15 91 1008.9
20260506192532 11 338 0.0 0.0 0.13 0.36 0.13 90 1008.9
20260506191528 12 338 0.0 0.0 0.13 0.53 0.13 90 1008.8
20260506190525 12 338 0.0 0.0 0.05 0.86 0.05 90 1008.7
20260506185521 12 338 0.0 0.0 0.05 1.37 0.05 90 1008.6
20260506184518 12 338 0.0 0.0 0.03 1.85 0.03 88 1008.5
20260506183615 13 338 0.0 0.0 0.00 1.83 0.00 82 1008.4
20260506182611 13 338 0.0 0.0 0.00 1.83 0.00 80 1008.0
20260506181608 13 338 0.0 0.0 0.00 1.83 0.00 81 1007.9
20260506180604 13 338 0.0 0.0 0.00 1.83 0.00 79 1007.9
20260506175601 13 338 0.0 0.0 0.00 1.83 0.00 79 1007.8
20260506174558 13 338 0.0 0.0 0.00 1.83 0.00 77 1007.7
20260506173554 14 338 0.0 0.0 0.00 1.83 0.00 74 1007.6
20260506172551 14 338 0.0 0.0 0.00 1.83 0.00 73 1007.7
20260506171547 15 338 0.0 0.0 0.00 1.83 0.00 72 1007.6
20260506170544 15 338 0.0 0.0 0.00 1.83 0.00 70 1007.6
20260506165540 15 338 0.0 0.0 0.00 1.83 0.00 69 1007.6
20260506164537 15 338 0.0 0.0 0.00 1.83 0.00 68 1007.6
20260506163533 15 0 0.0 0.0 0.00 1.83 0.00 68 1007.7
20260506162530 15 0 0.0 0.0 0.00 1.83 0.00 67 1007.8
20260506161526 16 23 0.0 0.0 0.00 1.83 0.00 67 1007.8
20260506160523 16 135 0.0 3.2 0.00 1.83 0.00 64 1007.7
20260506155519 16 0 0.0 3.2 0.00 1.83 0.00 64 1007.8
20260506154516 16 270 0.0 3.2 0.00 1.83 0.00 66 1008.0
20260506153613 16 278 0.0 3.2 0.00 1.83 0.00 64 1008.2
20260506152609 16 236 0.0 3.2 0.00 1.83 0.00 64 1008.2
20260506151606 16 0 0.0 0.0 0.00 1.83 0.00 63 1008.3
20260506150603 16 0 0.0 3.2 0.00 1.83 0.00 64 1008.3
20260506145559 16 0 0.0 3.2 0.00 1.83 0.00 64 1008.3
20260506144556 16 248 0.0 3.2 0.00 1.83 0.00 63 1008.3
20260506143552 16 248 0.0 3.2 0.00 1.83 0.00 63 1008.4
20260506142549 16 248 0.0 3.2 0.00 1.83 0.00 64 1008.4
20260506141546 16 225 0.0 3.2 0.00 1.83 0.00 62 1008.4
20260506140542 16 248 0.0 3.2 0.00 1.83 0.00 60 1008.5
20260506135539 17 248 0.0 3.2 0.00 1.83 0.00 58 1008.5
20260506134535 17 25 1.6 3.2 0.00 1.83 0.00 59 1008.4
20260506133532 16 90 0.0 3.2 0.00 1.83 0.00 60 1008.5
20260506132528 16 180 1.6 6.4 0.00 1.83 0.00 60 1008.6
20260506131525 16 248 0.0 3.2 0.00 1.83 0.00 61 1008.8
20260506130522 16 90 0.0 3.2 0.00 1.83 0.00 61 1008.8
20260506125518 16 90 1.6 6.4 0.00 1.83 0.00 62 1008.6
20260506124615 16 135 0.0 6.4 0.00 1.83 0.00 60 1008.8
20260506123612 16 90 0.0 3.2 0.00 1.83 0.00 60 1009.0
20260506122608 16 147 0.0 3.2 0.00 1.83 0.00 61 1009.1
20260506121605 15 104 1.6 6.4 0.00 1.83 0.00 62 1009.2
20260506120601 16 172 1.6 3.2 0.00 1.83 0.00 62 1009.2
20260506115558 16 158 0.0 3.2 0.00 1.83 0.00 61 1009.3
20260506114555 16 167 1.6 6.4 0.00 1.83 0.00 63 1009.2
20260506113551 15 158 1.6 3.2 0.00 1.83 0.00 65 1009.3
20260506112548 16 152 1.6 6.4 0.00 1.83 0.00 64 1009.4
20260506111544 16 158 1.6 6.4 0.00 1.83 0.00 65 1009.4
20260506105537 15 158 0.0 3.2 0.00 1.83 0.00 68 1009.4
20260506104534 15 158 0.0 6.4 0.00 1.83 0.00 69 1009.5
20260506103530 15 128 1.6 6.4 0.00 1.83 0.00 69 1009.4
20260506102527 15 161 1.6 6.4 0.00 1.83 0.00 65 1009.4